Time,TemperatureF,DewpointF,PressureIn,WindDirection,WindDirectionDegrees,WindSpeedMPH,WindSpeedGustMPH,Humidity,HourlyPrecipIn,Conditions,Clouds,dailyrainin,SoftwareType,DateUTC
2013-03-22 00:00:00,25.3,20.9,29.95,SW,215,11.0,14.0,83,0.00,,---,0.00,VWS V13.01,2013-03-22 04:00:00,
2013-03-22 00:05:00,25.3,21.1,29.94,SW,229,6.0,11.0,84,0.00,,---,0.00,VWS V13.01,2013-03-22 04:05:00,
2013-03-22 00:10:00,25.3,21.1,29.94,SW,226,7.0,15.0,84,0.00,,---,0.00,VWS V13.01,2013-03-22 04:10:00,
2013-03-22 00:15:00,25.3,21.1,29.94,WSW,248,4.0,15.0,84,0.00,,---,0.00,VWS V13.01,2013-03-22 04:15:00,
2013-03-22 00:20:00,25.3,21.1,29.94,WSW,239,5.0,15.0,84,0.00,,---,0.00,VWS V13.01,2013-03-22 04:20:00,
2013-03-22 00:25:00,25.3,20.9,29.94,SW,226,6.0,15.0,83,0.00,,---,0.00,VWS V13.01,2013-03-22 04:25:00,
2013-03-22 00:30:00,25.3,20.9,29.94,WSW,247,13.0,15.0,83,0.00,,---,0.00,VWS V13.01,2013-03-22 04:30:00,
2013-03-22 00:35:00,25.3,20.9,29.94,SW,236,9.0,15.0,83,0.00,,---,0.00,VWS V13.01,2013-03-22 04:35:00,
2013-03-22 00:40:00,25.4,21.0,29.94,SW,230,7.0,16.0,83,0.00,,---,0.00,VWS V13.01,2013-03-22 04:40:00,
2013-03-22 00:45:00,25.4,21.2,29.94,SW,222,12.0,16.0,84,0.00,,---,0.00,VWS V13.01,2013-03-22 04:45:00,
2013-03-22 00:50:00,25.4,21.2,29.94,WSW,243,6.0,16.0,84,0.00,,---,0.00,VWS V13.01,2013-03-22 04:50:00,
2013-03-22 00:55:00,25.4,21.2,29.94,West,263,6.0,16.0,84,0.00,,---,0.00,VWS V13.01,2013-03-22 04:55:00,
2013-03-22 01:00:00,25.4,21.2,29.94,West,259,6.0,9.0,84,0.00,,---,0.00,VWS V13.01,2013-03-22 05:00:00,
2013-03-22 01:05:00,25.4,21.5,29.94,WSW,244,7.0,17.0,85,0.00,,---,0.00,VWS V13.01,2013-03-22 05:05:00,
2013-03-22 01:10:00,25.3,21.4,29.94,SSW,209,4.0,17.0,85,0.00,,---,0.00,VWS V13.01,2013-03-22 05:10:00,
2013-03-22 01:15:00,25.3,21.7,29.94,WSW,239,7.0,17.0,86,0.00,,---,0.00,VWS V13.01,2013-03-22 05:15:00,
2013-03-22 01:20:00,25.3,21.7,29.94,SSW,202,5.0,17.0,86,0.00,,---,0.00,VWS V13.01,2013-03-22 05:20:00,
2013-03-22 01:25:00,25.2,21.6,29.93,SW,225,9.0,17.0,86,0.00,,---,0.00,VWS V13.01,2013-03-22 05:25:00,
2013-03-22 01:30:00,25.2,21.6,29.93,SW,223,7.0,9.0,86,0.00,,---,0.00,VWS V13.01,2013-03-22 05:30:00,
2013-03-22 01:36:00,25.2,21.9,29.93,SSW,196,6.0,14.0,87,0.00,,---,0.00,VWS V13.01,2013-03-22 05:36:00,
2013-03-22 01:41:00,25.1,21.8,29.93,WSW,238,4.0,14.0,87,0.00,,---,0.00,VWS V13.01,2013-03-22 05:41:00,
2013-03-22 01:46:00,25.1,22.0,29.94,SSW,195,6.0,14.0,88,0.00,,---,0.00,VWS V13.01,2013-03-22 05:46:00,
2013-03-22 01:51:00,25.1,22.0,29.94,WSW,253,8.0,14.0,88,0.00,,---,0.00,VWS V13.01,2013-03-22 05:51:00,
2013-03-22 01:56:00,25.1,22.0,29.94,WSW,237,7.0,14.0,88,0.00,,---,0.00,VWS V13.01,2013-03-22 05:56:00,
2013-03-22 02:01:00,25.1,22.0,29.94,SSW,212,5.0,6.0,88,0.00,,---,0.00,VWS V13.01,2013-03-22 06:01:00,
2013-03-22 02:06:00,25.1,22.0,29.94,SW,225,4.0,12.0,88,0.00,,---,0.00,VWS V13.01,2013-03-22 06:06:00,
2013-03-22 02:11:00,25.1,22.0,29.95,WSW,248,8.0,12.0,88,0.00,,---,0.00,VWS V13.01,2013-03-22 06:11:00,
2013-03-22 02:16:00,25.2,22.1,29.95,SSW,211,7.0,12.0,88,0.00,,---,0.00,VWS V13.01,2013-03-22 06:16:00,
2013-03-22 02:21:00,25.2,21.9,29.94,SW,217,3.0,12.0,87,0.00,,---,0.00,VWS V13.01,2013-03-22 06:21:00,
2013-03-22 02:26:00,25.3,22.0,29.94,SW,230,8.0,12.0,87,0.00,,---,0.00,VWS V13.01,2013-03-22 06:26:00,
2013-03-22 02:31:00,25.3,22.0,29.94,SW,223,5.0,7.0,87,0.00,,---,0.00,VWS V13.01,2013-03-22 06:31:00,
2013-03-22 02:36:00,25.4,21.8,29.95,SW,232,3.0,8.0,86,0.00,,---,0.00,VWS V13.01,2013-03-22 06:36:00,
2013-03-22 02:41:00,25.4,21.8,29.95,West,261,4.0,8.0,86,0.00,,---,0.00,VWS V13.01,2013-03-22 06:41:00,
2013-03-22 02:46:00,25.6,21.7,29.94,WSW,241,4.0,9.0,85,0.00,,---,0.00,VWS V13.01,2013-03-22 06:46:00,
2013-03-22 02:51:00,25.8,21.6,29.94,SW,223,7.0,9.0,84,0.00,,---,0.00,VWS V13.01,2013-03-22 06:51:00,
2013-03-22 02:56:00,25.9,21.5,29.94,WSW,250,1.0,10.0,83,0.00,,---,0.00,VWS V13.01,2013-03-22 06:56:00,
2013-03-22 03:01:00,26.0,21.3,29.94,SW,223,4.0,12.0,82,0.00,,---,0.00,VWS V13.01,2013-03-22 07:01:00,
2013-03-22 03:06:00,26.1,21.1,29.94,SW,225,8.0,14.0,81,0.00,,---,0.00,VWS V13.01,2013-03-22 07:06:00,
2013-03-22 03:11:00,26.1,21.1,29.94,WSW,247,6.0,14.0,81,0.00,,---,0.00,VWS V13.01,2013-03-22 07:11:00,
2013-03-22 03:16:00,26.2,21.2,29.94,WSW,238,6.0,14.0,81,0.00,,---,0.00,VWS V13.01,2013-03-22 07:16:00,
2013-03-22 03:21:00,26.3,21.0,29.94,WSW,238,6.0,14.0,80,0.00,,---,0.00,VWS V13.01,2013-03-22 07:21:00,
2013-03-22 03:26:00,26.3,20.7,29.94,WSW,242,5.0,14.0,79,0.00,,---,0.00,VWS V13.01,2013-03-22 07:26:00,
2013-03-22 03:31:00,26.4,21.1,29.94,SW,234,7.0,14.0,80,0.00,,---,0.00,VWS V13.01,2013-03-22 07:31:00,
2013-03-22 03:36:00,26.4,20.8,29.94,WSW,248,11.0,14.0,79,0.00,,---,0.00,VWS V13.01,2013-03-22 07:36:00,
2013-03-22 03:41:00,26.5,20.9,29.93,West,261,10.0,14.0,79,0.00,,---,0.00,VWS V13.01,2013-03-22 07:41:00,
2013-03-22 03:46:00,26.5,20.6,29.93,West,262,4.0,14.0,78,0.00,,---,0.00,VWS V13.01,2013-03-22 07:46:00,
2013-03-22 03:51:00,26.5,20.6,29.93,West,270,5.0,14.0,78,0.00,,---,0.00,VWS V13.01,2013-03-22 07:51:00,
2013-03-22 03:56:00,26.5,20.6,29.93,SW,232,7.0,14.0,78,0.00,,---,0.00,VWS V13.01,2013-03-22 07:56:00,
2013-03-22 04:01:00,26.6,20.7,29.93,SW,223,7.0,14.0,78,0.00,,---,0.00,VWS V13.01,2013-03-22 08:01:00,
2013-03-22 04:06:00,26.7,20.8,29.93,West,259,6.0,14.0,78,0.00,,---,0.00,VWS V13.01,2013-03-22 08:06:00,
2013-03-22 04:12:00,26.7,20.5,29.93,West,260,8.0,14.0,77,0.00,,---,0.00,VWS V13.01,2013-03-22 08:12:00,
2013-03-22 04:17:00,26.8,20.6,29.93,WSW,246,8.0,14.0,77,0.00,,---,0.00,VWS V13.01,2013-03-22 08:17:00,
2013-03-22 04:22:00,26.8,20.6,29.93,WNW,286,7.0,14.0,77,0.00,,---,0.00,VWS V13.01,2013-03-22 08:22:00,
2013-03-22 04:27:00,26.9,20.7,29.93,WNW,286,4.0,14.0,77,0.00,,---,0.00,VWS V13.01,2013-03-22 08:27:00,
2013-03-22 04:32:00,26.9,20.4,29.93,SW,225,8.0,11.0,76,0.00,,---,0.00,VWS V13.01,2013-03-22 08:32:00,
2013-03-22 04:37:00,26.9,20.4,29.93,WSW,246,4.0,11.0,76,0.00,,---,0.00,VWS V13.01,2013-03-22 08:37:00,
2013-03-22 04:42:00,26.9,20.7,29.93,West,263,2.0,11.0,77,0.00,,---,0.00,VWS V13.01,2013-03-22 08:42:00,
2013-03-22 04:47:00,26.9,20.4,29.93,WSW,249,9.0,11.0,76,0.00,,---,0.00,VWS V13.01,2013-03-22 08:47:00,
2013-03-22 04:52:00,26.9,20.4,29.93,SW,229,5.0,11.0,76,0.00,,---,0.00,VWS V13.01,2013-03-22 08:52:00,
2013-03-22 04:57:00,27.0,20.1,29.93,WSW,251,13.0,15.0,75,0.00,,---,0.00,VWS V13.01,2013-03-22 08:57:00,
2013-03-22 05:02:00,27.0,20.1,29.93,SW,230,6.0,11.0,75,0.00,,---,0.00,VWS V13.01,2013-03-22 09:02:00,
2013-03-22 05:07:00,27.0,20.5,29.93,SW,235,3.0,11.0,76,0.00,,---,0.00,VWS V13.01,2013-03-22 09:07:00,
2013-03-22 05:12:00,27.0,20.1,29.94,WNW,283,6.0,17.0,75,0.00,,---,0.00,VWS V13.01,2013-03-22 09:12:00,
2013-03-22 05:17:00,27.0,19.8,29.93,WNW,284,6.0,17.0,74,0.00,,---,0.00,VWS V13.01,2013-03-22 09:17:00,
2013-03-22 05:22:00,27.0,19.8,29.93,West,262,6.0,17.0,74,0.00,,---,0.00,VWS V13.01,2013-03-22 09:22:00,
2013-03-22 05:27:00,27.0,19.8,29.93,WSW,254,5.0,17.0,74,0.00,,---,0.00,VWS V13.01,2013-03-22 09:27:00,
2013-03-22 05:32:00,27.0,19.8,29.94,WSW,249,5.0,8.0,74,0.00,,---,0.00,VWS V13.01,2013-03-22 09:32:00,
2013-03-22 05:37:00,26.9,19.7,29.94,SW,227,6.0,12.0,74,0.00,,---,0.00,VWS V13.01,2013-03-22 09:37:00,
2013-03-22 05:42:00,26.9,19.7,29.94,WSW,257,5.0,12.0,74,0.00,,---,0.00,VWS V13.01,2013-03-22 09:42:00,
2013-03-22 05:47:00,26.8,19.6,29.94,SW,217,6.0,15.0,74,0.00,,---,0.00,VWS V13.01,2013-03-22 09:47:00,
2013-03-22 05:52:00,26.8,19.6,29.94,WSW,252,6.0,15.0,74,0.00,,---,0.00,VWS V13.01,2013-03-22 09:52:00,
2013-03-22 05:57:00,26.7,19.5,29.94,WSW,253,7.0,17.0,74,0.00,,---,0.00,VWS V13.01,2013-03-22 09:57:00,
2013-03-22 06:02:00,26.7,19.2,29.94,WSW,240,4.0,17.0,73,0.00,,---,0.00,VWS V13.01,2013-03-22 10:02:00,
2013-03-22 06:07:00,26.7,19.5,29.94,WSW,238,6.0,17.0,74,0.00,,---,0.00,VWS V13.01,2013-03-22 10:07:00,
2013-03-22 06:12:00,26.7,19.2,29.95,WSW,246,16.0,17.0,73,0.00,,---,0.00,VWS V13.01,2013-03-22 10:12:00,
2013-03-22 06:17:00,26.7,19.2,29.95,West,263,5.0,17.0,73,0.00,,---,0.00,VWS V13.01,2013-03-22 10:17:00,
2013-03-22 06:22:00,26.7,19.2,29.94,West,264,7.0,17.0,73,0.00,,---,0.00,VWS V13.01,2013-03-22 10:22:00,
2013-03-22 06:27:00,26.7,19.2,29.95,West,265,5.0,17.0,73,0.00,,---,0.00,VWS V13.01,2013-03-22 10:27:00,
2013-03-22 06:32:00,26.6,19.1,29.95,WSW,244,5.0,12.0,73,0.00,,---,0.00,VWS V13.01,2013-03-22 10:32:00,
2013-03-22 06:37:00,26.6,19.1,29.95,SSW,203,6.0,12.0,73,0.00,,---,0.00,VWS V13.01,2013-03-22 10:37:00,
2013-03-22 06:42:00,26.6,19.4,29.95,WSW,240,11.0,13.0,74,0.00,,---,0.00,VWS V13.01,2013-03-22 10:42:00,
2013-03-22 06:47:00,26.5,19.4,29.95,West,265,3.0,13.0,74,0.00,,---,0.00,VWS V13.01,2013-03-22 10:47:00,
2013-03-22 06:52:00,26.5,19.4,29.95,SW,236,7.0,13.0,74,0.00,,---,0.00,VWS V13.01,2013-03-22 10:52:00,
2013-03-22 06:57:00,26.4,19.6,29.95,WSW,241,5.0,13.0,75,0.00,,---,0.00,VWS V13.01,2013-03-22 10:57:00,
2013-03-22 07:02:00,26.4,19.2,29.96,WSW,248,4.0,10.0,74,0.00,,---,0.00,VWS V13.01,2013-03-22 11:02:00,
2013-03-22 07:07:00,26.5,19.4,29.96,West,266,3.0,12.0,74,0.00,,---,0.00,VWS V13.01,2013-03-22 11:07:00,
2013-03-22 07:12:00,26.5,19.4,29.97,SW,230,3.0,14.0,74,0.00,,---,0.00,VWS V13.01,2013-03-22 11:12:00,
2013-03-22 07:17:00,26.5,19.4,29.97,WSW,257,8.0,14.0,74,0.00,,---,0.00,VWS V13.01,2013-03-22 11:17:00,
2013-03-22 07:22:00,26.5,19.4,29.97,WSW,240,5.0,15.0,74,0.00,,---,0.00,VWS V13.01,2013-03-22 11:22:00,
2013-03-22 07:27:00,26.5,19.0,29.97,WSW,249,9.0,16.0,73,0.00,,---,0.00,VWS V13.01,2013-03-22 11:27:00,
2013-03-22 07:32:00,26.5,19.4,29.97,WNW,284,3.0,11.0,74,0.00,,---,0.00,VWS V13.01,2013-03-22 11:32:00,
2013-03-22 07:37:00,26.4,19.6,29.97,West,265,9.0,13.0,75,0.00,,---,0.00,VWS V13.01,2013-03-22 11:37:00,
2013-03-22 07:42:00,26.4,19.6,29.98,SSW,202,6.0,14.0,75,0.00,,---,0.00,VWS V13.01,2013-03-22 11:42:00,
2013-03-22 07:47:00,26.3,19.5,29.98,WSW,242,6.0,14.0,75,0.00,,---,0.00,VWS V13.01,2013-03-22 11:47:00,
2013-03-22 07:52:00,26.3,19.5,29.98,WSW,244,6.0,18.0,75,0.00,,---,0.00,VWS V13.01,2013-03-22 11:52:00,
2013-03-22 07:57:00,26.3,19.8,29.98,SW,223,4.0,18.0,76,0.00,,---,0.00,VWS V13.01,2013-03-22 11:57:00,
2013-03-22 08:02:00,26.3,19.8,29.98,SW,236,3.0,6.0,76,0.00,,---,0.00,VWS V13.01,2013-03-22 12:02:00,
2013-03-22 08:07:00,26.4,19.9,29.98,West,279,7.0,11.0,76,0.00,,---,0.00,VWS V13.01,2013-03-22 12:07:00,
2013-03-22 08:12:00,26.3,20.1,29.98,WSW,250,8.0,16.0,77,0.00,,---,0.00,VWS V13.01,2013-03-22 12:12:00,
2013-03-22 08:17:00,26.3,20.1,29.98,WSW,241,4.0,16.0,77,0.00,,---,0.00,VWS V13.01,2013-03-22 12:17:00,
2013-03-22 08:22:00,26.3,20.4,29.98,SW,228,4.0,16.0,78,0.00,,---,0.00,VWS V13.01,2013-03-22 12:22:00,
2013-03-22 08:27:00,26.4,20.2,29.98,WNW,282,5.0,16.0,77,0.00,,---,0.00,VWS V13.01,2013-03-22 12:27:00,
2013-03-22 08:32:00,26.4,20.2,29.98,SW,234,7.0,10.0,77,0.00,,---,0.00,VWS V13.01,2013-03-22 12:32:00,
2013-03-22 08:37:00,26.5,20.6,29.99,WSW,241,9.0,11.0,78,0.00,,---,0.00,VWS V13.01,2013-03-22 12:37:00,
2013-03-22 08:42:00,26.5,20.6,29.99,West,269,9.0,11.0,78,0.00,,---,0.00,VWS V13.01,2013-03-22 12:42:00,
2013-03-22 08:47:00,26.7,20.8,29.99,West,259,2.0,11.0,78,0.00,,---,0.00,VWS V13.01,2013-03-22 12:47:00,
2013-03-22 08:52:00,26.9,21.0,29.99,WSW,247,6.0,11.0,78,0.00,,---,0.00,VWS V13.01,2013-03-22 12:52:00,
2013-03-22 08:57:00,26.9,20.7,29.99,WSW,254,7.0,12.0,77,0.00,,---,0.00,VWS V13.01,2013-03-22 12:57:00,
2013-03-22 09:02:00,26.9,20.7,29.99,WSW,242,9.0,14.0,77,0.00,,---,0.00,VWS V13.01,2013-03-22 13:02:00,
2013-03-22 09:07:00,27.1,20.9,29.99,West,271,7.0,14.0,77,0.00,,---,0.00,VWS V13.01,2013-03-22 13:07:00,
2013-03-22 09:13:00,27.2,20.6,29.99,SW,236,11.0,14.0,76,0.00,,---,0.00,VWS V13.01,2013-03-22 13:13:00,
2013-03-22 09:18:00,27.5,20.9,29.99,West,271,4.0,14.0,76,0.00,,---,0.00,VWS V13.01,2013-03-22 13:18:00,
2013-03-22 09:23:00,27.6,21.0,29.99,WSW,254,7.0,14.0,76,0.00,,---,0.00,VWS V13.01,2013-03-22 13:23:00,
2013-03-22 09:28:00,27.6,20.4,29.99,WSW,252,5.0,14.0,74,0.00,,---,0.00,VWS V13.01,2013-03-22 13:28:00,
2013-03-22 09:33:00,27.9,21.0,29.99,SSW,199,7.0,13.0,75,0.00,,---,0.00,VWS V13.01,2013-03-22 13:33:00,
2013-03-22 09:38:00,28.0,20.8,29.99,West,277,4.0,13.0,74,0.00,,---,0.00,VWS V13.01,2013-03-22 13:38:00,
2013-03-22 09:43:00,28.0,20.2,29.99,West,275,6.0,13.0,72,0.00,,---,0.00,VWS V13.01,2013-03-22 13:43:00,
2013-03-22 09:48:00,28.1,20.2,29.99,West,275,4.0,13.0,72,0.00,,---,0.00,VWS V13.01,2013-03-22 13:48:00,
2013-03-22 09:53:00,28.2,20.4,29.99,WSW,254,6.0,13.0,72,0.00,,---,0.00,VWS V13.01,2013-03-22 13:53:00,
2013-03-22 09:58:00,28.1,19.9,29.99,WNW,297,4.0,13.0,71,0.00,,---,0.00,VWS V13.01,2013-03-22 13:58:00,
2013-03-22 10:03:00,28.1,19.9,29.99,WSW,250,3.0,8.0,71,0.00,,---,0.00,VWS V13.01,2013-03-22 14:03:00,
2013-03-22 10:08:00,28.0,19.5,29.99,West,263,7.0,14.0,70,0.00,,---,0.00,VWS V13.01,2013-03-22 14:08:00,
2013-03-22 10:13:00,28.0,20.2,29.99,WNW,287,4.0,14.0,72,0.00,,---,0.00,VWS V13.01,2013-03-22 14:13:00,
2013-03-22 10:18:00,28.1,19.9,29.99,WSW,246,4.0,14.0,71,0.00,,---,0.00,VWS V13.01,2013-03-22 14:18:00,
2013-03-22 10:23:00,28.2,20.0,30.00,WNW,296,7.0,14.0,71,0.00,,---,0.00,VWS V13.01,2013-03-22 14:23:00,
2013-03-22 10:28:00,28.2,19.7,30.00,West,269,4.0,14.0,70,0.00,,---,0.00,VWS V13.01,2013-03-22 14:28:00,
2013-03-22 10:33:00,28.3,19.8,30.00,WSW,257,11.0,12.0,70,0.00,,---,0.00,VWS V13.01,2013-03-22 14:33:00,
2013-03-22 10:38:00,28.4,19.9,30.00,WSW,248,6.0,12.0,70,0.00,,---,0.00,VWS V13.01,2013-03-22 14:38:00,
2013-03-22 10:43:00,28.4,19.9,30.00,WSW,251,5.0,12.0,70,0.00,,---,0.00,VWS V13.01,2013-03-22 14:43:00,
2013-03-22 10:48:00,28.5,20.3,30.00,West,268,3.0,12.0,71,0.00,,---,0.00,VWS V13.01,2013-03-22 14:48:00,
2013-03-22 10:53:00,28.5,20.3,30.00,West,277,7.0,14.0,71,0.00,,---,0.00,VWS V13.01,2013-03-22 14:53:00,
2013-03-22 10:58:00,28.7,20.2,30.00,WSW,249,12.0,14.0,70,0.00,,---,0.00,VWS V13.01,2013-03-22 14:58:00,
2013-03-22 11:03:00,28.9,20.4,30.00,SW,234,7.0,12.0,70,0.00,,---,0.00,VWS V13.01,2013-03-22 15:03:00,
2013-03-22 11:08:00,29.0,20.1,30.00,West,267,5.0,15.0,69,0.00,,---,0.00,VWS V13.01,2013-03-22 15:08:00,
2013-03-22 11:13:00,29.3,20.7,30.00,South,184,6.0,15.0,70,0.00,,---,0.00,VWS V13.01,2013-03-22 15:13:00,
2013-03-22 11:18:00,29.3,20.1,30.00,West,261,5.0,15.0,68,0.00,,---,0.00,VWS V13.01,2013-03-22 15:18:00,
2013-03-22 11:23:00,29.0,19.4,30.00,WSW,247,7.0,15.0,67,0.00,,---,0.00,VWS V13.01,2013-03-22 15:23:00,
2013-03-22 11:28:00,29.0,19.8,30.00,SW,234,5.0,15.0,68,0.00,,---,0.00,VWS V13.01,2013-03-22 15:28:00,
2013-03-22 11:33:00,29.1,19.5,30.00,WSW,246,6.0,13.0,67,0.00,,---,0.00,VWS V13.01,2013-03-22 15:33:00,
2013-03-22 11:38:00,29.2,19.6,30.00,WSW,257,5.0,15.0,67,0.00,,---,0.00,VWS V13.01,2013-03-22 15:38:00,
2013-03-22 11:43:00,29.1,19.9,30.00,West,273,6.0,15.0,68,0.00,,---,0.00,VWS V13.01,2013-03-22 15:43:00,
2013-03-22 11:48:00,29.1,20.2,30.00,SW,231,13.0,15.0,69,0.00,,---,0.00,VWS V13.01,2013-03-22 15:48:00,
2013-03-22 11:53:00,29.1,20.2,30.00,WSW,248,6.0,15.0,69,0.00,,---,0.00,VWS V13.01,2013-03-22 15:53:00,
2013-03-22 11:58:00,29.2,20.3,30.00,WSW,247,4.0,15.0,69,0.00,,---,0.00,VWS V13.01,2013-03-22 15:58:00,
2013-03-22 12:03:00,29.3,20.4,30.00,SW,236,9.0,14.0,69,0.00,,---,0.00,VWS V13.01,2013-03-22 16:03:00,
2013-03-22 12:08:00,29.4,20.5,30.00,WSW,249,11.0,14.0,69,0.00,,---,0.00,VWS V13.01,2013-03-22 16:08:00,
2013-03-22 12:13:00,29.6,20.4,30.00,WSW,252,5.0,14.0,68,0.00,,---,0.00,VWS V13.01,2013-03-22 16:13:00,
2013-03-22 12:18:00,29.7,20.5,30.00,WSW,249,10.0,14.0,68,0.00,,---,0.00,VWS V13.01,2013-03-22 16:18:00,
2013-03-22 12:23:00,29.8,20.5,30.00,WSW,246,10.0,14.0,68,0.00,,---,0.00,VWS V13.01,2013-03-22 16:23:00,
2013-03-22 12:28:00,30.2,21.6,30.00,WSW,247,4.0,14.0,70,0.00,,---,0.00,VWS V13.01,2013-03-22 16:28:00,
2013-03-22 12:33:00,30.8,22.2,30.00,SW,236,12.0,17.0,70,0.00,,---,0.00,VWS V13.01,2013-03-22 16:33:00,
2013-03-22 12:38:00,30.5,21.2,30.00,SW,232,4.0,17.0,68,0.00,,---,0.00,VWS V13.01,2013-03-22 16:38:00,
2013-03-22 12:43:00,30.6,21.6,30.00,West,276,8.0,17.0,69,0.00,,---,0.00,VWS V13.01,2013-03-22 16:43:00,
2013-03-22 12:48:00,30.6,21.3,30.00,West,261,7.0,17.0,68,0.00,,---,0.00,VWS V13.01,2013-03-22 16:48:00,
2013-03-22 12:53:00,30.5,21.2,30.00,West,261,11.0,18.0,68,0.00,,---,0.00,VWS V13.01,2013-03-22 16:53:00,
2013-03-22 12:58:00,30.6,21.3,30.00,SW,217,9.0,18.0,68,0.00,,---,0.00,VWS V13.01,2013-03-22 16:58:00,
2013-03-22 13:03:00,30.5,20.5,30.01,West,262,9.0,15.0,66,0.00,,---,0.00,VWS V13.01,2013-03-22 17:03:00,
2013-03-22 13:08:00,30.3,20.3,30.01,West,275,8.0,15.0,66,0.00,,---,0.00,VWS V13.01,2013-03-22 17:08:00,
2013-03-22 13:13:00,30.3,20.3,30.00,WNW,287,2.0,15.0,66,0.00,,---,0.00,VWS V13.01,2013-03-22 17:13:00,
2013-03-22 13:18:00,30.5,20.5,30.00,West,276,4.0,15.0,66,0.00,,---,0.00,VWS V13.01,2013-03-22 17:18:00,
2013-03-22 13:23:00,30.6,20.6,30.00,WNW,283,2.0,15.0,66,0.00,,---,0.00,VWS V13.01,2013-03-22 17:23:00,
2013-03-22 13:28:00,30.8,20.8,30.01,WSW,250,7.0,15.0,66,0.00,,---,0.00,VWS V13.01,2013-03-22 17:28:00,
2013-03-22 13:33:00,30.8,21.1,30.00,West,261,4.0,13.0,67,0.00,,---,0.00,VWS V13.01,2013-03-22 17:33:00,
2013-03-22 13:38:00,31.1,21.4,30.00,West,261,8.0,13.0,67,0.00,,---,0.00,VWS V13.01,2013-03-22 17:38:00,
2013-03-22 13:43:00,31.3,20.9,30.00,WSW,251,10.0,14.0,65,0.00,,---,0.00,VWS V13.01,2013-03-22 17:43:00,
2013-03-22 13:48:00,31.2,21.2,30.00,SW,234,6.0,14.0,66,0.00,,---,0.00,VWS V13.01,2013-03-22 17:48:00,
2013-03-22 13:53:00,31.0,21.3,30.00,West,269,8.0,15.0,67,0.00,,---,0.00,VWS V13.01,2013-03-22 17:53:00,
2013-03-22 13:58:00,31.2,21.5,30.00,West,267,4.0,15.0,67,0.00,,---,0.00,VWS V13.01,2013-03-22 17:58:00,
2013-03-22 14:03:00,30.9,21.2,30.01,SW,229,7.0,17.0,67,0.00,,---,0.00,VWS V13.01,2013-03-22 18:03:00,
2013-03-22 14:08:00,30.9,21.2,30.01,WNW,297,8.0,17.0,67,0.00,,---,0.00,VWS V13.01,2013-03-22 18:08:00,
2013-03-22 14:13:00,31.1,21.1,30.01,SW,217,6.0,17.0,66,0.00,,---,0.00,VWS V13.01,2013-03-22 18:13:00,
2013-03-22 14:18:00,31.3,20.9,30.00,West,261,13.0,17.0,65,0.00,,---,0.00,VWS V13.01,2013-03-22 18:18:00,
2013-03-22 14:23:00,31.3,21.3,30.01,SW,225,3.0,17.0,66,0.00,,---,0.00,VWS V13.01,2013-03-22 18:23:00,
2013-03-22 14:28:00,31.8,20.7,30.00,SW,236,9.0,17.0,63,0.00,,---,0.00,VWS V13.01,2013-03-22 18:28:00,
2013-03-22 14:33:00,31.6,20.5,30.00,West,273,9.0,16.0,63,0.00,,---,0.00,VWS V13.01,2013-03-22 18:33:00,
2013-03-22 14:38:00,31.4,21.0,30.00,WSW,246,10.0,18.0,65,0.00,,---,0.00,VWS V13.01,2013-03-22 18:38:00,
2013-03-22 14:43:00,31.6,21.2,30.00,WSW,246,6.0,18.0,65,0.00,,---,0.00,VWS V13.01,2013-03-22 18:43:00,
2013-03-22 14:48:00,31.7,20.9,30.00,WSW,237,8.0,18.0,64,0.00,,---,0.00,VWS V13.01,2013-03-22 18:48:00,
2013-03-22 14:53:00,31.8,21.0,30.00,WSW,248,10.0,18.0,64,0.00,,---,0.00,VWS V13.01,2013-03-22 18:53:00,
2013-03-22 14:58:00,32.1,21.3,30.00,SW,233,8.0,18.0,64,0.00,,---,0.00,VWS V13.01,2013-03-22 18:58:00,
2013-03-22 15:03:00,32.7,21.5,30.00,WSW,237,5.0,15.0,63,0.00,,---,0.00,VWS V13.01,2013-03-22 19:03:00,
2013-03-22 15:08:00,33.1,21.5,30.00,WSW,248,9.0,17.0,62,0.00,,---,0.00,VWS V13.01,2013-03-22 19:08:00,
2013-03-22 15:13:00,32.9,19.8,30.00,West,273,6.0,17.0,58,0.00,,---,0.00,VWS V13.01,2013-03-22 19:13:00,
2013-03-22 15:18:00,33.1,20.4,30.00,WSW,252,16.0,20.0,59,0.00,,---,0.00,VWS V13.01,2013-03-22 19:18:00,
2013-03-22 15:23:00,32.9,19.8,30.00,SW,229,16.0,20.0,58,0.00,,---,0.00,VWS V13.01,2013-03-22 19:23:00,
2013-03-22 15:28:00,32.8,18.8,30.00,WSW,253,11.0,20.0,56,0.00,,---,0.00,VWS V13.01,2013-03-22 19:28:00,
2013-03-22 15:33:00,32.9,20.2,30.00,WSW,240,3.0,13.0,59,0.00,,---,0.00,VWS V13.01,2013-03-22 19:33:00,
2013-03-22 15:38:00,33.4,20.2,30.00,WSW,243,7.0,13.0,58,0.00,,---,0.00,VWS V13.01,2013-03-22 19:38:00,
2013-03-22 15:43:00,33.6,19.6,30.00,West,266,8.0,13.0,56,0.00,,---,0.00,VWS V13.01,2013-03-22 19:43:00,
2013-03-22 15:48:00,33.5,19.9,30.00,WSW,246,3.0,16.0,57,0.00,,---,0.00,VWS V13.01,2013-03-22 19:48:00,
2013-03-22 15:53:00,33.4,19.8,30.00,WSW,246,7.0,16.0,57,0.00,,---,0.00,VWS V13.01,2013-03-22 19:53:00,
2013-03-22 15:58:00,33.4,19.8,30.00,SW,219,6.0,16.0,57,0.00,,---,0.00,VWS V13.01,2013-03-22 19:58:00,
2013-03-22 16:03:00,33.5,19.9,30.00,West,261,6.0,15.0,57,0.00,,---,0.00,VWS V13.01,2013-03-22 20:03:00,
2013-03-22 16:09:00,33.4,19.8,30.00,NW,309,4.0,15.0,57,0.00,,---,0.00,VWS V13.01,2013-03-22 20:09:00,
2013-03-22 16:13:00,33.5,19.5,30.00,SW,236,10.0,15.0,56,0.00,,---,0.00,VWS V13.01,2013-03-22 20:13:00,
2013-03-22 16:18:00,33.6,20.0,30.00,SW,228,9.0,15.0,57,0.00,,---,0.00,VWS V13.01,2013-03-22 20:18:00,
2013-03-22 16:23:00,33.6,20.0,30.00,West,265,12.0,15.0,57,0.00,,---,0.00,VWS V13.01,2013-03-22 20:23:00,
2013-03-22 16:29:00,33.6,19.6,30.00,SW,221,7.0,15.0,56,0.00,,---,0.00,VWS V13.01,2013-03-22 20:29:00,
2013-03-22 16:34:00,33.4,19.8,30.00,West,271,5.0,13.0,57,0.00,,---,0.00,VWS V13.01,2013-03-22 20:34:00,
2013-03-22 16:39:00,33.6,20.0,30.00,WSW,252,6.0,14.0,57,0.00,,---,0.00,VWS V13.01,2013-03-22 20:39:00,
2013-03-22 16:44:00,33.6,20.0,30.00,WSW,252,5.0,14.0,57,0.00,,---,0.00,VWS V13.01,2013-03-22 20:44:00,
2013-03-22 16:49:00,33.7,20.1,30.00,West,279,7.0,14.0,57,0.00,,---,0.00,VWS V13.01,2013-03-22 20:49:00,
2013-03-22 16:54:00,33.6,20.4,30.01,West,259,6.0,14.0,58,0.00,,---,0.00,VWS V13.01,2013-03-22 20:54:00,
2013-03-22 16:59:00,33.5,20.3,30.00,West,275,6.0,16.0,58,0.00,,---,0.00,VWS V13.01,2013-03-22 20:59:00,
2013-03-22 17:04:00,33.6,20.0,30.01,West,265,3.0,11.0,57,0.00,,---,0.00,VWS V13.01,2013-03-22 21:04:00,
2013-03-22 17:09:00,33.7,20.1,30.01,WSW,240,9.0,11.0,57,0.00,,---,0.00,VWS V13.01,2013-03-22 21:09:00,
2013-03-22 17:14:00,33.7,20.5,30.01,West,275,6.0,20.0,58,0.00,,---,0.00,VWS V13.01,2013-03-22 21:14:00,
2013-03-22 17:19:00,33.8,20.2,30.01,WNW,294,3.0,20.0,57,0.00,,---,0.00,VWS V13.01,2013-03-22 21:19:00,
2013-03-22 17:24:00,33.8,20.6,30.01,West,267,6.0,20.0,58,0.00,,---,0.00,VWS V13.01,2013-03-22 21:24:00,
2013-03-22 17:29:00,33.6,20.0,30.01,West,269,7.0,20.0,57,0.00,,---,0.00,VWS V13.01,2013-03-22 21:29:00,
2013-03-22 17:34:00,33.6,20.4,30.01,West,269,9.0,12.0,58,0.00,,---,0.00,VWS V13.01,2013-03-22 21:34:00,
2013-03-22 17:39:00,33.7,20.5,30.01,WSW,252,10.0,14.0,58,0.00,,---,0.00,VWS V13.01,2013-03-22 21:39:00,
2013-03-22 17:44:00,33.7,20.5,30.01,WNW,300,2.0,14.0,58,0.00,,---,0.00,VWS V13.01,2013-03-22 21:44:00,
2013-03-22 17:49:00,33.7,20.5,30.01,WNW,285,4.0,14.0,58,0.00,,---,0.00,VWS V13.01,2013-03-22 21:49:00,
2013-03-22 17:54:00,33.6,20.0,30.02,West,275,4.0,16.0,57,0.00,,---,0.00,VWS V13.01,2013-03-22 21:54:00,
2013-03-22 17:59:00,33.5,19.9,30.02,WNW,284,5.0,16.0,57,0.00,,---,0.00,VWS V13.01,2013-03-22 21:59:00,
2013-03-22 18:04:00,33.6,20.4,30.02,NW,304,10.0,12.0,58,0.00,,---,0.00,VWS V13.01,2013-03-22 22:04:00,
2013-03-22 18:09:00,33.6,20.4,30.02,WNW,287,3.0,12.0,58,0.00,,---,0.00,VWS V13.01,2013-03-22 22:09:00,
2013-03-22 18:14:00,33.6,20.4,30.02,WSW,247,4.0,12.0,58,0.00,,---,0.00,VWS V13.01,2013-03-22 22:14:00,
2013-03-22 18:19:00,33.5,20.7,30.02,West,264,7.0,12.0,59,0.00,,---,0.00,VWS V13.01,2013-03-22 22:19:00,
2013-03-22 18:24:00,33.4,20.2,30.02,WNW,298,9.0,12.0,58,0.00,,---,0.00,VWS V13.01,2013-03-22 22:24:00,
2013-03-22 18:29:00,33.4,20.2,30.03,WSW,244,6.0,13.0,58,0.00,,---,0.00,VWS V13.01,2013-03-22 22:29:00,
2013-03-22 18:34:00,33.2,20.4,30.02,WSW,249,7.0,17.0,59,0.00,,---,0.00,VWS V13.01,2013-03-22 22:34:00,
2013-03-22 18:39:00,33.1,19.9,30.03,WSW,258,5.0,17.0,58,0.00,,---,0.00,VWS V13.01,2013-03-22 22:39:00,
2013-03-22 18:44:00,33.0,19.9,30.02,West,277,3.0,17.0,58,0.00,,---,0.00,VWS V13.01,2013-03-22 22:44:00,
2013-03-22 18:49:00,33.0,19.9,30.03,WNW,288,4.0,17.0,58,0.00,,---,0.00,VWS V13.01,2013-03-22 22:49:00,
2013-03-22 18:54:00,32.7,19.6,30.02,WNW,292,7.0,17.0,58,0.00,,---,0.00,VWS V13.01,2013-03-22 22:54:00,
2013-03-22 18:59:00,32.5,19.8,30.03,West,275,3.0,17.0,59,0.00,,---,0.00,VWS V13.01,2013-03-22 22:59:00,
2013-03-22 19:04:00,32.2,19.5,30.03,WSW,250,7.0,13.0,59,0.00,,---,0.00,VWS V13.01,2013-03-22 23:04:00,
2013-03-22 19:09:00,32.0,19.7,30.03,WNW,290,4.0,13.0,60,0.00,,---,0.00,VWS V13.01,2013-03-22 23:09:00,
2013-03-22 19:14:00,31.9,19.6,30.03,NW,313,1.0,13.0,60,0.00,,---,0.00,VWS V13.01,2013-03-22 23:14:00,
2013-03-22 19:19:00,31.7,19.4,30.03,WNW,296,4.0,13.0,60,0.00,,---,0.00,VWS V13.01,2013-03-22 23:19:00,
2013-03-22 19:24:00,31.5,19.6,30.03,NW,309,6.0,13.0,61,0.00,,---,0.00,VWS V13.01,2013-03-22 23:24:00,
2013-03-22 19:29:00,31.3,19.4,30.03,NW,307,3.0,13.0,61,0.00,,---,0.00,VWS V13.01,2013-03-22 23:29:00,
2013-03-22 19:34:00,31.2,19.3,30.03,WNW,284,6.0,7.0,61,0.00,,---,0.00,VWS V13.01,2013-03-22 23:34:00,
2013-03-22 19:39:00,31.0,19.5,30.03,WNW,288,1.0,7.0,62,0.00,,---,0.00,VWS V13.01,2013-03-22 23:39:00,
2013-03-22 19:44:00,30.8,19.3,30.03,WNW,298,3.0,8.0,62,0.00,,---,0.00,VWS V13.01,2013-03-22 23:44:00,
2013-03-22 19:49:00,30.7,19.6,30.03,WNW,300,3.0,8.0,63,0.00,,---,0.00,VWS V13.01,2013-03-22 23:49:00,
2013-03-22 19:54:00,30.6,19.5,30.03,WNW,302,4.0,8.0,63,0.00,,---,0.00,VWS V13.01,2013-03-22 23:54:00,
2013-03-22 19:59:00,30.6,19.5,30.03,NW,317,0.0,8.0,63,0.00,,---,0.00,VWS V13.01,2013-03-22 23:59:00,
2013-03-22 20:04:00,30.5,19.4,30.03,NW,311,0.0,3.0,63,0.00,,---,0.00,VWS V13.01,2013-03-23 00:04:00,
2013-03-22 20:09:00,30.3,19.6,30.04,NW,321,0.0,3.0,64,0.00,,---,0.00,VWS V13.01,2013-03-23 00:09:00,
2013-03-22 20:14:00,30.2,19.5,30.04,NW,321,2.0,4.0,64,0.00,,---,0.00,VWS V13.01,2013-03-23 00:14:00,
2013-03-22 20:19:00,30.0,19.7,30.04,NW,321,0.0,4.0,65,0.00,,---,0.00,VWS V13.01,2013-03-23 00:19:00,
2013-03-22 20:24:00,29.8,19.5,30.04,NW,321,2.0,4.0,65,0.00,,---,0.00,VWS V13.01,2013-03-23 00:24:00,
2013-03-22 20:29:00,29.7,19.4,30.04,NW,321,2.0,4.0,65,0.00,,---,0.00,VWS V13.01,2013-03-23 00:29:00,
2013-03-22 20:34:00,29.6,19.3,30.04,NNW,331,2.0,4.0,65,0.00,,---,0.00,VWS V13.01,2013-03-23 00:34:00,
2013-03-22 20:39:00,29.6,19.6,30.04,NNW,331,1.0,4.0,66,0.00,,---,0.00,VWS V13.01,2013-03-23 00:39:00,
2013-03-22 20:44:00,29.5,19.6,30.05,NW,325,1.0,4.0,66,0.00,,---,0.00,VWS V13.01,2013-03-23 00:44:00,
2013-03-22 20:49:00,29.4,19.5,30.05,NW,325,0.0,4.0,66,0.00,,---,0.00,VWS V13.01,2013-03-23 00:49:00,
2013-03-22 20:54:00,29.2,19.3,30.05,NW,325,0.0,4.0,66,0.00,,---,0.00,VWS V13.01,2013-03-23 00:54:00,
2013-03-22 20:59:00,29.0,19.4,30.05,NNW,330,0.0,4.0,67,0.00,,---,0.00,VWS V13.01,2013-03-23 00:59:00,
2013-03-22 21:04:00,28.7,19.1,30.05,NNW,330,1.0,3.0,67,0.00,,---,0.00,VWS V13.01,2013-03-23 01:04:00,
2013-03-22 21:09:00,28.5,19.3,30.05,NNW,333,0.0,3.0,68,0.00,,---,0.00,VWS V13.01,2013-03-23 01:09:00,
2013-03-22 21:14:00,28.3,19.1,30.05,NNW,333,0.0,3.0,68,0.00,,---,0.00,VWS V13.01,2013-03-23 01:14:00,
2013-03-22 21:19:00,28.1,19.3,30.05,NNW,333,1.0,3.0,69,0.00,,---,0.00,VWS V13.01,2013-03-23 01:19:00,
2013-03-22 21:24:00,27.9,19.1,30.05,NNW,333,0.0,3.0,69,0.00,,---,0.00,VWS V13.01,2013-03-23 01:24:00,
2013-03-22 21:29:00,27.8,19.3,30.05,NNW,333,0.0,3.0,70,0.00,,---,0.00,VWS V13.01,2013-03-23 01:29:00,
2013-03-22 21:34:00,27.7,19.2,30.05,NNW,333,0.0,0.0,70,0.00,,---,0.00,VWS V13.01,2013-03-23 01:34:00,
2013-03-22 21:39:00,27.6,19.1,30.05,NNW,333,0.0,1.0,70,0.00,,---,0.00,VWS V13.01,2013-03-23 01:39:00,
2013-03-22 21:44:00,27.4,19.2,30.06,NNW,333,0.0,1.0,71,0.00,,---,0.00,VWS V13.01,2013-03-23 01:44:00,
2013-03-22 21:49:00,27.3,19.1,30.05,NNW,333,0.0,1.0,71,0.00,,---,0.00,VWS V13.01,2013-03-23 01:49:00,
2013-03-22 21:54:00,27.1,19.0,30.06,NNW,333,0.0,1.0,71,0.00,,---,0.00,VWS V13.01,2013-03-23 01:54:00,
2013-03-22 21:59:00,26.9,18.8,30.06,NNW,333,0.0,1.0,71,0.00,,---,0.00,VWS V13.01,2013-03-23 01:59:00,
2013-03-22 22:04:00,26.7,18.9,30.06,NNW,333,0.0,0.0,72,0.00,,---,0.00,VWS V13.01,2013-03-23 02:04:00,
2013-03-22 22:09:00,26.6,18.8,30.06,NNW,333,0.0,0.0,72,0.00,,---,0.00,VWS V13.01,2013-03-23 02:09:00,
2013-03-22 22:14:00,26.5,18.7,30.06,NNW,333,0.0,0.0,72,0.00,,---,0.00,VWS V13.01,2013-03-23 02:14:00,
2013-03-22 22:19:00,26.3,18.8,30.06,NNW,333,0.0,0.0,73,0.00,,---,0.00,VWS V13.01,2013-03-23 02:19:00,
2013-03-22 22:24:00,26.1,19.0,30.06,NNW,333,0.0,0.0,74,0.00,,---,0.00,VWS V13.01,2013-03-23 02:24:00,
2013-03-22 22:29:00,25.9,18.8,30.06,NNW,333,0.0,0.0,74,0.00,,---,0.00,VWS V13.01,2013-03-23 02:29:00,
2013-03-22 22:34:00,25.8,18.7,30.05,NNW,333,0.0,0.0,74,0.00,,---,0.00,VWS V13.01,2013-03-23 02:34:00,
2013-03-22 22:39:00,25.6,18.5,30.05,NNW,333,0.0,0.0,74,0.00,,---,0.00,VWS V13.01,2013-03-23 02:39:00,
2013-03-22 22:44:00,25.2,18.4,30.05,NNW,333,0.0,0.0,75,0.00,,---,0.00,VWS V13.01,2013-03-23 02:44:00,
2013-03-22 22:49:00,25.0,17.9,30.05,NNW,333,0.0,0.0,74,0.00,,---,0.00,VWS V13.01,2013-03-23 02:49:00,
2013-03-22 22:54:00,24.7,17.9,30.05,NNW,333,0.0,0.0,75,0.00,,---,0.00,VWS V13.01,2013-03-23 02:54:00,
2013-03-22 22:59:00,24.4,17.9,30.05,NNW,333,0.0,0.0,76,0.00,,---,0.00,VWS V13.01,2013-03-23 02:59:00,
2013-03-22 23:04:00,24.2,17.7,30.05,NNW,333,0.0,0.0,76,0.00,,---,0.00,VWS V13.01,2013-03-23 03:04:00,
2013-03-22 23:09:00,24.0,17.9,30.06,NNW,333,0.0,0.0,77,0.00,,---,0.00,VWS V13.01,2013-03-23 03:09:00,
2013-03-22 23:14:00,23.8,18.0,30.06,NNW,333,0.0,0.0,78,0.00,,---,0.00,VWS V13.01,2013-03-23 03:14:00,
2013-03-22 23:19:00,23.7,17.9,30.06,NNW,333,0.0,1.0,78,0.00,,---,0.00,VWS V13.01,2013-03-23 03:19:00,
2013-03-22 23:24:00,23.5,18.0,30.06,NNW,333,0.0,1.0,79,0.00,,---,0.00,VWS V13.01,2013-03-23 03:24:00,
2013-03-22 23:29:00,23.4,17.9,30.06,NNW,333,0.0,1.0,79,0.00,,---,0.00,VWS V13.01,2013-03-23 03:29:00,
2013-03-22 23:34:00,23.1,17.9,30.06,NNW,333,0.0,0.0,80,0.00,,---,0.00,VWS V13.01,2013-03-23 03:34:00,
2013-03-22 23:39:00,22.9,18.0,30.06,NNW,333,0.0,0.0,81,0.00,,---,0.00,VWS V13.01,2013-03-23 03:39:00,
2013-03-22 23:44:00,22.8,17.9,30.06,NNW,333,0.0,0.0,81,0.00,,---,0.00,VWS V13.01,2013-03-23 03:44:00,
2013-03-22 23:49:00,22.6,17.4,30.06,NNW,333,0.0,1.0,80,0.00,,---,0.00,VWS V13.01,2013-03-23 03:49:00,
2013-03-22 23:54:00,22.3,17.4,30.07,NNW,333,0.0,2.0,81,0.00,,---,0.00,VWS V13.01,2013-03-23 03:54:00,
2013-03-22 23:59:00,22.2,17.5,30.06,NNW,333,0.0,2.0,82,0.00,,---,0.00,VWS V13.01,2013-03-23 03:59:00,